site,time,unit,value
Moira,10/11/2023 00:00:00,MW,1.0606909
Moira,10/11/2023 00:05:00,MW,1.0611575
Moira,10/11/2023 00:10:00,MW,1.1327534
Moira,10/11/2023 00:15:00,MW,1.090679
Moira,10/11/2023 00:20:00,MW,1.0695419
Moira,10/11/2023 00:25:00,MW,1.1835486
Moira,10/11/2023 00:30:00,MW,1.228983
Moira,10/11/2023 00:35:00,MW,1.2061001
Moira,10/11/2023 00:40:00,MW,1.2359219
Moira,10/11/2023 00:45:00,MW,1.2069193
Moira,10/11/2023 00:50:00,MW,1.1982185
Moira,10/11/2023 00:55:00,MW,1.2043618
Moira,10/11/2023 01:00:00,MW,1.2063127
Moira,10/11/2023 01:05:00,MW,1.2288461
Moira,10/11/2023 01:10:00,MW,1.2624474
Moira,10/11/2023 01:15:00,MW,1.1759282
Moira,10/11/2023 01:20:00,MW,1.2048786
Moira,10/11/2023 01:25:00,MW,1.1616775
Moira,10/11/2023 01:30:00,MW,1.1871284
Moira,10/11/2023 01:35:00,MW,1.212919
Moira,10/11/2023 01:40:00,MW,1.1790267
Moira,10/11/2023 01:45:00,MW,1.2146235
Moira,10/11/2023 01:50:00,MW,1.1470809
Moira,10/11/2023 01:55:00,MW,1.1663153
Moira,10/11/2023 02:00:00,MW,1.1505681
Moira,10/11/2023 02:05:00,MW,1.2348287
Moira,10/11/2023 02:10:00,MW,1.1889957
Moira,10/11/2023 02:15:00,MW,1.1917483
Moira,10/11/2023 02:20:00,MW,1.1984662
Moira,10/11/2023 02:25:00,MW,1.1739872
Moira,10/11/2023 02:30:00,MW,1.142585
Moira,10/11/2023 02:35:00,MW,1.1125627
Moira,10/11/2023 02:40:00,MW,1.1243465
Moira,10/11/2023 02:45:00,MW,1.122938
Moira,10/11/2023 02:50:00,MW,1.1167518
Moira,10/11/2023 02:55:00,MW,1.0994655
Moira,10/11/2023 03:00:00,MW,1.1253936
Moira,10/11/2023 03:05:00,MW,1.1431563
Moira,10/11/2023 03:10:00,MW,1.1338683
Moira,10/11/2023 03:15:00,MW,1.1323458
Moira,10/11/2023 03:20:00,MW,1.1274844
Moira,10/11/2023 03:25:00,MW,1.0845777
Moira,10/11/2023 03:30:00,MW,1.106596
Moira,10/11/2023 03:35:00,MW,1.1067598
Moira,10/11/2023 03:40:00,MW,1.0709275
Moira,10/11/2023 03:45:00,MW,1.0958489
Moira,10/11/2023 03:50:00,MW,1.099241
Moira,10/11/2023 03:55:00,MW,1.1054426
Moira,10/11/2023 04:00:00,MW,1.065748
Moira,10/11/2023 04:05:00,MW,0.9192041
Moira,10/11/2023 04:10:00,MW,0.9522855
Moira,10/11/2023 04:15:00,MW,0.91823125
Moira,10/11/2023 04:20:00,MW,0.95986414
Moira,10/11/2023 04:25:00,MW,1.025466
Moira,10/11/2023 04:30:00,MW,0.96290934
Moira,10/11/2023 04:35:00,MW,0.85176224
Moira,10/11/2023 04:40:00,MW,0.8816631
Moira,10/11/2023 04:45:00,MW,0.8700497
Moira,10/11/2023 04:50:00,MW,0.83416927
Moira,10/11/2023 04:55:00,MW,0.82041067
Moira,10/11/2023 05:00:00,MW,0.8482913
Moira,10/11/2023 05:05:00,MW,0.8354883
Moira,10/11/2023 05:10:00,MW,0.88465655
Moira,10/11/2023 05:15:00,MW,0.89079887
Moira,10/11/2023 05:20:00,MW,0.88070506
Moira,10/11/2023 05:25:00,MW,0.86587125
Moira,10/11/2023 05:30:00,MW,0.8948027
Moira,10/11/2023 05:35:00,MW,0.9444219
Moira,10/11/2023 05:40:00,MW,0.88465685
Moira,10/11/2023 05:45:00,MW,0.959374
Moira,10/11/2023 05:50:00,MW,0.9285507
Moira,10/11/2023 05:55:00,MW,0.97985107
Moira,10/11/2023 06:00:00,MW,1.0316374
Moira,10/11/2023 06:05:00,MW,1.0326728
Moira,10/11/2023 06:10:00,MW,1.037855
Moira,10/11/2023 06:15:00,MW,0.9816337
Moira,10/11/2023 06:20:00,MW,0.98486245
Moira,10/11/2023 06:25:00,MW,1.0606729
Moira,10/11/2023 06:30:00,MW,1.0817938
Moira,10/11/2023 06:35:00,MW,1.0842092
Moira,10/11/2023 06:40:00,MW,1.1221751
Moira,10/11/2023 06:45:00,MW,1.1522506
Moira,10/11/2023 06:50:00,MW,1.2366225
Moira,10/11/2023 06:55:00,MW,1.3679701
Moira,10/11/2023 07:00:00,MW,1.3772278
Moira,10/11/2023 07:05:00,MW,1.3853667
Moira,10/11/2023 07:10:00,MW,1.4466928
Moira,10/11/2023 07:15:00,MW,1.4427668
Moira,10/11/2023 07:20:00,MW,1.4414669
Moira,10/11/2023 07:25:00,MW,1.4727613
Moira,10/11/2023 07:30:00,MW,1.5142051
Moira,10/11/2023 07:35:00,MW,1.4832047
Moira,10/11/2023 07:40:00,MW,1.5116078
Moira,10/11/2023 07:45:00,MW,1.562581
Moira,10/11/2023 07:50:00,MW,1.5638355
Moira,10/11/2023 07:55:00,MW,1.5358613
Moira,10/11/2023 08:00:00,MW,1.5477655
Moira,10/11/2023 08:05:00,MW,1.5891939
Moira,10/11/2023 08:10:00,MW,1.6506714
Moira,10/11/2023 08:15:00,MW,1.5100113
Moira,10/11/2023 08:20:00,MW,1.3333215
Moira,10/11/2023 08:25:00,MW,1.3144807
Moira,10/11/2023 08:30:00,MW,1.3150946
Moira,10/11/2023 08:35:00,MW,1.2514305
Moira,10/11/2023 08:40:00,MW,1.325893
Moira,10/11/2023 08:45:00,MW,1.367332
Moira,10/11/2023 08:50:00,MW,1.3491722
Moira,10/11/2023 08:55:00,MW,1.2797928
Moira,10/11/2023 09:00:00,MW,1.2012037
Moira,10/11/2023 09:05:00,MW,1.2291471
Moira,10/11/2023 09:10:00,MW,1.1763295
Moira,10/11/2023 09:15:00,MW,1.1004198
Moira,10/11/2023 09:20:00,MW,1.0708059
Moira,10/11/2023 09:25:00,MW,1.070004
Moira,10/11/2023 09:30:00,MW,1.0423491
Moira,10/11/2023 09:35:00,MW,0.68288463
Moira,10/11/2023 09:40:00,MW,0.54408675
Moira,10/11/2023 09:45:00,MW,1.0554137
Moira,10/11/2023 09:50:00,MW,1.0509942
Moira,10/11/2023 09:55:00,MW,0.8501111
Moira,10/11/2023 10:00:00,MW,0.7963318
Moira,10/11/2023 10:05:00,MW,0.9053379
Moira,10/11/2023 10:10:00,MW,0.9576558
Moira,10/11/2023 10:15:00,MW,0.7931883
Moira,10/11/2023 10:20:00,MW,0.6535164
Moira,10/11/2023 10:25:00,MW,0.91793424
Moira,10/11/2023 10:30:00,MW,0.9895775
Moira,10/11/2023 10:35:00,MW,1.1162223
Moira,10/11/2023 10:40:00,MW,1.061752
Moira,10/11/2023 10:45:00,MW,0.95620066
Moira,10/11/2023 10:50:00,MW,0.7998773
Moira,10/11/2023 10:55:00,MW,0.82247615
Moira,10/11/2023 11:00:00,MW,0.7840771
Moira,10/11/2023 11:05:00,MW,0.88103014
Moira,10/11/2023 11:10:00,MW,0.7176325
Moira,10/11/2023 11:15:00,MW,0.8200022
Moira,10/11/2023 11:20:00,MW,0.8973439
Moira,10/11/2023 11:25:00,MW,0.8909262
Moira,10/11/2023 11:30:00,MW,0.9273346
Moira,10/11/2023 11:35:00,MW,0.8960853
Moira,10/11/2023 11:40:00,MW,0.94263095
Moira,10/11/2023 11:45:00,MW,0.95376277
Moira,10/11/2023 11:50:00,MW,1.084553
Moira,10/11/2023 11:55:00,MW,1.2272798
Moira,10/11/2023 12:00:00,MW,1.2774451
Moira,10/11/2023 12:05:00,MW,1.4319785
Moira,10/11/2023 12:10:00,MW,1.4669167
Moira,10/11/2023 12:15:00,MW,1.4989887
Moira,10/11/2023 12:20:00,MW,1.536928
Moira,10/11/2023 12:25:00,MW,1.5048382
Moira,10/11/2023 12:30:00,MW,1.5153682
Moira,10/11/2023 12:35:00,MW,1.5249356
Moira,10/11/2023 12:40:00,MW,1.4864783
Moira,10/11/2023 12:45:00,MW,1.5238391
Moira,10/11/2023 12:50:00,MW,1.4536806
Moira,10/11/2023 12:55:00,MW,1.4400373
Moira,10/11/2023 13:00:00,MW,1.5018618
Moira,10/11/2023 13:05:00,MW,1.4264468
Moira,10/11/2023 13:10:00,MW,1.4453605
Moira,10/11/2023 13:15:00,MW,1.3722085
Moira,10/11/2023 13:20:00,MW,1.3005742
Moira,10/11/2023 13:25:00,MW,1.309479
Moira,10/11/2023 13:30:00,MW,1.3065444
Moira,10/11/2023 13:35:00,MW,1.4569024
Moira,10/11/2023 13:40:00,MW,1.3142045
Moira,10/11/2023 13:45:00,MW,1.266889
Moira,10/11/2023 13:50:00,MW,1.2506852
Moira,10/11/2023 13:55:00,MW,1.2783993
Moira,10/11/2023 14:00:00,MW,1.1719209
Moira,10/11/2023 14:05:00,MW,1.10409
Moira,10/11/2023 14:10:00,MW,1.1669271
Moira,10/11/2023 14:15:00,MW,1.3011793
Moira,10/11/2023 14:20:00,MW,1.3777311
Moira,10/11/2023 14:25:00,MW,1.3801328
Moira,10/11/2023 14:30:00,MW,1.4581447
Moira,10/11/2023 14:35:00,MW,1.4260538
Moira,10/11/2023 14:40:00,MW,1.3738858
Moira,10/11/2023 14:45:00,MW,1.316501
Moira,10/11/2023 14:50:00,MW,1.4579473
Moira,10/11/2023 14:55:00,MW,1.4021355
Moira,10/11/2023 15:00:00,MW,1.2871846
Moira,10/11/2023 15:05:00,MW,1.3373129
Moira,10/11/2023 15:10:00,MW,1.333667
Moira,10/11/2023 15:15:00,MW,1.437448
Moira,10/11/2023 15:20:00,MW,1.4533012
Moira,10/11/2023 15:25:00,MW,1.600062
Moira,10/11/2023 15:30:00,MW,1.5827986
Moira,10/11/2023 15:35:00,MW,1.4888529
Moira,10/11/2023 15:40:00,MW,1.568889
Moira,10/11/2023 15:45:00,MW,1.5242375
Moira,10/11/2023 15:50:00,MW,1.5855656
Moira,10/11/2023 15:55:00,MW,1.573519
Moira,10/11/2023 16:00:00,MW,1.6065576
Moira,10/11/2023 16:05:00,MW,1.5303673
Moira,10/11/2023 16:10:00,MW,1.5901563
Moira,10/11/2023 16:15:00,MW,1.4501194
Moira,10/11/2023 16:20:00,MW,1.4382321
Moira,10/11/2023 16:25:00,MW,1.4762092
Moira,10/11/2023 16:30:00,MW,1.6581635
Moira,10/11/2023 16:35:00,MW,1.7242709
Moira,10/11/2023 16:40:00,MW,1.7571077
Moira,10/11/2023 16:45:00,MW,1.7457348
Moira,10/11/2023 16:50:00,MW,1.8197279
Moira,10/11/2023 16:55:00,MW,1.8675392
Moira,10/11/2023 17:00:00,MW,1.7816654
Moira,10/11/2023 17:05:00,MW,1.7734101
Moira,10/11/2023 17:10:00,MW,1.7943366
Moira,10/11/2023 17:15:00,MW,1.8117045
Moira,10/11/2023 17:20:00,MW,1.8462416
Moira,10/11/2023 17:25:00,MW,1.8666869
Moira,10/11/2023 17:30:00,MW,1.9237883
Moira,10/11/2023 17:35:00,MW,1.9612161
Moira,10/11/2023 17:40:00,MW,1.9266655
Moira,10/11/2023 17:45:00,MW,2.0134413
Moira,10/11/2023 17:50:00,MW,2.0302498
Moira,10/11/2023 17:55:00,MW,2.0110693
Moira,10/11/2023 18:00:00,MW,1.986092
Moira,10/11/2023 18:05:00,MW,1.9194341
Moira,10/11/2023 18:10:00,MW,1.9559813
Moira,10/11/2023 18:15:00,MW,1.9712687
Moira,10/11/2023 18:20:00,MW,1.96831
Moira,10/11/2023 18:25:00,MW,1.9925852
Moira,10/11/2023 18:30:00,MW,2.0861719
Moira,10/11/2023 18:35:00,MW,2.0873182
Moira,10/11/2023 18:40:00,MW,2.0676348
Moira,10/11/2023 18:45:00,MW,2.0758533
Moira,10/11/2023 18:50:00,MW,2.0487244
Moira,10/11/2023 18:55:00,MW,2.1368744
Moira,10/11/2023 19:00:00,MW,2.1351058
Moira,10/11/2023 19:05:00,MW,2.1595066
Moira,10/11/2023 19:10:00,MW,2.1151905
Moira,10/11/2023 19:15:00,MW,2.0118885
Moira,10/11/2023 19:20:00,MW,1.9418082
Moira,10/11/2023 19:25:00,MW,1.8915395
Moira,10/11/2023 19:30:00,MW,1.8789335
Moira,10/11/2023 19:35:00,MW,1.8365282
Moira,10/11/2023 19:40:00,MW,1.9672617
Moira,10/11/2023 19:45:00,MW,1.93615
Moira,10/11/2023 19:50:00,MW,1.9084076
Moira,10/11/2023 19:55:00,MW,1.8993242
Moira,10/11/2023 20:00:00,MW,1.9114066
Moira,10/11/2023 20:05:00,MW,1.898155
Moira,10/11/2023 20:10:00,MW,1.8518746
Moira,10/11/2023 20:15:00,MW,1.8336674
Moira,10/11/2023 20:20:00,MW,1.774641
Moira,10/11/2023 20:25:00,MW,1.7973775
Moira,10/11/2023 20:30:00,MW,1.8605859
Moira,10/11/2023 20:35:00,MW,1.7562006
Moira,10/11/2023 20:40:00,MW,1.8139372
Moira,10/11/2023 20:45:00,MW,1.7275712
Moira,10/11/2023 20:50:00,MW,1.7297702
Moira,10/11/2023 20:55:00,MW,1.7108883
Moira,10/11/2023 21:00:00,MW,1.7257891
Moira,10/11/2023 21:05:00,MW,1.7113655
Moira,10/11/2023 21:10:00,MW,1.722408
Moira,10/11/2023 21:15:00,MW,1.6277657
Moira,10/11/2023 21:20:00,MW,1.5533922
Moira,10/11/2023 21:25:00,MW,1.5895154
Moira,10/11/2023 21:30:00,MW,1.6029733
Moira,10/11/2023 21:35:00,MW,1.5271068
Moira,10/11/2023 21:40:00,MW,1.5064741
Moira,10/11/2023 21:45:00,MW,1.5163567
Moira,10/11/2023 21:50:00,MW,1.507032
Moira,10/11/2023 21:55:00,MW,1.5111418
Moira,10/11/2023 22:00:00,MW,1.4705877
Moira,10/11/2023 22:05:00,MW,1.3972354
Moira,10/11/2023 22:10:00,MW,1.3662322
Moira,10/11/2023 22:15:00,MW,1.3919957
Moira,10/11/2023 22:20:00,MW,1.4411643
Moira,10/11/2023 22:25:00,MW,1.3775393
Moira,10/11/2023 22:30:00,MW,1.3463093
Moira,10/11/2023 22:35:00,MW,1.3374096
Moira,10/11/2023 22:40:00,MW,1.26858
Moira,10/11/2023 22:45:00,MW,1.3236102
Moira,10/11/2023 22:50:00,MW,1.3744175
Moira,10/11/2023 22:55:00,MW,1.3632791
Moira,10/11/2023 23:00:00,MW,1.3201878
Moira,10/11/2023 23:05:00,MW,1.2923727
Moira,10/11/2023 23:10:00,MW,1.2408526
Moira,10/11/2023 23:15:00,MW,1.2411741
Moira,10/11/2023 23:20:00,MW,1.2441337
Moira,10/11/2023 23:25:00,MW,1.2299731
Moira,10/11/2023 23:30:00,MW,1.1978042
Moira,10/11/2023 23:35:00,MW,1.2487568
Moira,10/11/2023 23:40:00,MW,1.2199565
Moira,10/11/2023 23:45:00,MW,1.222216
Moira,10/11/2023 23:50:00,MW,1.1752255
Moira,10/11/2023 23:55:00,MW,1.1671797
